RH
31 31 28 25 28 25 29 30 32 31 34 30 31 26 25 26 28 33 31 42 40 41 42 43 41 38 40 42 42 40 40 39 37 35 36 34 35 34 33 35 38 40 42
28 30 29 27 28 28 25 28 28 27 28 30 28 27 24 24 28 28 28 33 38 40 42 38 39 41 36 35 37 39 39 38 36 31 31 33 34 37 38 38 37 38 37
29 30 31 30 27 26 23 24 26 24 22 26 27 26 24 23 24 28 26 27 33 36 37 36 34 36 39 38 37 36 40 38 37 35 35 37 39 40 38 38 44 51 56
34 30 32 28 25 23 23 21 23 21 20 20 22 24 25 26 23 23 28 25 25 29 34 35 32 31 31 33 32 32 31 30 30 30 35 37 38 41 43 50 60 61 60
34 33 29 23 24 23 23 23 22 22 20 19 20 20 22 26 23 22 23 25 24 25 29 29 28 28 29 29 31 34 34 35 38 38 38 40 42 45 50 51 55 57 57
34 33 31 26 24 24 23 23 22 23 21 20 20 19 21 23 23 22 21 22 23 22 23 23 23 25 26 26 25 24 25 29 28 30 32 36 41 49 53 53 49 45 48
39 36 36 33 30 23 21 22 21 22 23 21 20 20 19 19 19 21 20 20 20 19 20 21 21 24 22 21 19 22 24 25 27 30 34 39 40 42 41 42 47 52 57
48 43 40 37 31 28 25 21 21 21 22 21 20 19 19 16 14 18 19 19 18 16 16 17 17 17 20 24 27 29 31 32 32 36 39 41 41 43 45 47 51 54 59
53 48 44 41 37 32 29 25 21 21 21 21 20 19 19 15 14 17 19 19 17 15 16 16 18 20 20 22 25 28 29 31 34 34 35 37 41 46 52 55 52 51 55
54 48 49 46 41 33 27 29 28 26 23 21 19 19 18 15 16 18 19 19 20 21 21 21 21 23 24 25 25 26 28 30 32 34 39 49 54 56 58 61 63 60 64
50 55 57 51 45 35 29 32 32 30 32 26 27 24 20 16 16 17 18 17 19 24 24 24 26 27 27 28 28 29 33 41 48 54 56 59 62 64 64 64 65 66 68
49 56 57 56 53 45 31 33 33 34 34 32 28 27 23 19 18 19 17 15 18 20 25 30 31 32 34 37 41 49 54 54 54 52 53 57 55 57 66 65 69 66 63
45 49 56 58 55 45 37 34 36 32 30 32 32 29 26 27 25 24 23 23 25 28 34 38 36 40 45 49 50 50 50 50 52 55 57 57 62 65 64 63 62 57 53
44 49 57 59 54 46 42 39 38 33 31 31 30 27 28 29 36 39 34 29 29 29 32 37 41 46 48 51 51 51 51 54 57 55 56 61 64 62 57 55 54 52 46
45 47 59 65 55 50 45 40 32 35 33 30 31 31 33 39 43 44 42 38 39 40 45 48 49 51 52 52 53 53 52 56 58 59 59 58 54 52 55 53 49 43 41
51 51 58 62 62 55 44 40 35 29 30 31 32 35 43 46 50 56 60 61 58 55 54 54 54 54 52 53 53 55 56 57 60 57 53 50 50 51 50 48 42 39 42
59 59 63 68 61 62 51 51 46 42 42 42 43 45 49 58 64 70 69 66 64 61 59 57 54 52 52 55 54 53 54 55 54 50 49 49 48 48 44 42 43 44 44
61 61 62 71 62 65 60 58 59 60 55 56 53 55 59 66 70 69 72 76 72 64 61 58 57 55 53 52 50 53 55 52 47 44 47 51 49 46 43 44 46 45 43
66 70 71 74 70 74 69 61 59 60 62 64 66 70 74 76 74 81 76 74 69 67 67 66 59 56 56 54 50 52 48 45 46 49 48 48 44 42 43 45 44 44 43
72 77 71 73 69 70 65 62 73 64 59 58 57 61 64 81 82 88 82 81 77 79 70 65 60 57 50 47 46 46 47 47 52 51 48 46 46 46 46 46 45 45 44
83 85 83 77 73 71 71 60 59 61 66 66 60 55 53 62 72 76 84 81 68 63 60 59 51 46 48 49 48 48 50 53 52 50 49 48 48 47 46 46 46 45 47
91 88 90 84 79 70 70 70 63 53 59 41 49 50 58 60 66 71 67 62 58 58 54 54 54 54 55 55 52 54 55 54 52 51 50 49 46 45 45 43 42 42 43
91 93 85 79 81 80 73 66 57 55 56 48 50 62 60 62 64 66 66 59 58 58 58 57 59 61 61 61 61 57 52 50 45 42 41 41 42 42 43 42 43 44 44
81 86 82 78 79 79 81 79 76 75 67 66 73 70 68 70 68 69 71 68 67 66 66 68 66 62 59 56 55 49 45 41 38 37 36 37 42 42 42 41 41 41 45
82 85 86 80 75 72 71 78 86 88 89 82 79 76 78 78 74 77 79 74 72 71 70 63 57 55 54 50 48 46 45 43 41 40 39 38 43 43 47 47 47 44 46
81 77 75 77 80 73 69 68 73 75 78 82 78 79 76 78 76 77 74 71 70 64 64 60 56 55 53 52 50 48 46 43 41 40 38 41 44 46 44 42 46 48 45